[Date Prev][Date Next][Thread Prev][Thread Next] - [Date Index][Thread Index][Author Index]

2 Line ISS Keps 9-24



ISS 
1 25544U 98067A   04268.40717593  .00040219  00000-0  35211-3 0  7579
2 25544  51.6371 179.3106 0010110 145.9737  10.7509 15.68415246333903
----
Via the sarex mailing list at AMSAT.ORG courtesy of AMSAT-NA.
To unsubscribe, send "unsubscribe sarex" to Majordomo@amsat.org



AMSAT Top AMSAT Home